Content
SEND FEEDBACK

Daily
Averages
Monthly
Summary
Thailand

BANGKOK, THAILAND


Home > Asia > Thailand
Elevation: 66 feet     Latitude: 13 44N     Longitude: 100 34E

WEATHER
 
SELECT A DAY
Number of Records: 235,544;   Date Range: 7/1/96 - 8/28/14
 
SHARE

PRINT THIS DATA

[ ← Previous Day ]
WEATHER ALMANAC - FEBRUARY 4, 2013
[ Next Day → ]
[ °C ]   °F
Weather ElementAverageHighLow
Temperature84.8 °F93.2 °F (3:00 pm)77 °F (6:00 am)
Dewpoint69.8 °F73.4 °F (12:30 am)64.4 °F (7:00 pm)
Humidity62.1 %83 % (6:00 am)35 % (1:00 pm)
Barometer29.91 in29.98 in (9:30 am)29.86 in (2:30 pm)
Wind Speed4 mph9.2 mph (12:30 pm)
Weather ElementAverage
Visibility4.4 mi
Wind DirectionS (177.6 °)

Weather ElementTotal
Precipitation---
Cooling Degree Days20.1 (Base 65)
Growing Degree Days35.1 (Base 50)
Averaged from 47 records on February 4, 2013
WEATHER CONDITIONS BREAKOUT
WIND DIRECTION BREAKOUT
WEATHER BY HOUR - FEBRUARY 4, 2013
[ °C ]   °F
Local TimeTemperatureDewpointHumidityBarometerVisibilityWind DirectionWind SpeedGust SpeedPrecipitationEventsConditions
12:30 AM82.4 °F73.4 °F74 %29.92 in3.7 miNNW (330°)2.3 mph
1:00 AM82.0 °F72.0 °F65 %29.93 in4.0 miCalmMist
1:00 AM82.4 °F71.6 °F70 %29.92 in3.7 miCalm
1:30 AM80.6 °F73.4 °F79 %29.92 in3.7 miNNW (330°)3.5 mph
2:00 AM80.6 °F73.4 °F79 %29.89 in3.7 miNW (320°)2.3 mph
2:30 AM80.6 °F73.4 °F79 %29.89 in3.7 miCalm
3:00 AM80.6 °F73.4 °F79 %29.89 in3.7 miNorth (10°)3.5 mph
3:30 AM80.6 °F71.6 °F74 %29.89 in3.1 miNorth (10°)3.5 mphMostly Cloudy
4:00 AM78.8 °F71.6 °F78 %29.89 in3.1 miNNW (340°)3.5 mphMostly Cloudy
4:30 AM78.8 °F71.6 °F78 %29.89 in3.1 miCalmMostly Cloudy
5:00 AM78.8 °F71.6 °F78 %29.89 in3.1 miNorth (10°)2.3 mphMostly Cloudy
5:30 AM78.8 °F71.6 °F78 %29.92 in3.1 miNNW (340°)5.8 mphMostly Cloudy
6:00 AM77.0 °F71.6 °F83 %29.92 in3.1 miNorth (360°)4.6 mphMostly Cloudy
6:30 AM77.0 °F71.6 °F83 %29.92 in3.1 miNorth (10°)4.6 mphMostly Cloudy
7:00 AM77.0 °F72.0 °F80 %29.95 in3.0 miNorth (10°)6.9 mphMist
7:00 AM77.0 °F71.6 °F83 %29.95 in3.1 miNorth (10°)6.9 mphMostly Cloudy
7:30 AM78.8 °F71.6 °F78 %29.95 in3.1 miNNE (20°)6.9 mphMostly Cloudy
8:00 AM78.8 °F71.6 °F78 %29.95 in3.1 miNNW (340°)4.6 mphMostly Cloudy
8:30 AM80.6 °F71.6 °F74 %29.95 in3.1 miNorth (360°)2.3 mphMostly Cloudy
9:00 AM80.6 °F69.8 °F70 %29.95 in3.7 miCalmMostly Cloudy
9:30 AM82.4 °F69.8 °F66 %29.98 in3.7 miENE (70°)4.6 mphMostly Cloudy
10:00 AM84.2 °F69.8 °F62 %29.98 in4.3 miENE (60°)5.8 mphMostly Cloudy
10:30 AM86.0 °F71.6 °F62 %29.98 in5.0 miNNE (30°)4.6 mph
11:00 AM87.8 °F68.0 °F52 %29.98 in5.0 miEast (90°)4.6 mph
11:30 AM89.6 °F68.0 °F49 %29.95 in5.0 miNorth (360°)4.6 mph
12:00 PM89.6 °F66.2 °F46 %29.92 in5.0 miENE (60°)4.6 mph
12:30 PM89.6 °F66.2 °F46 %29.92 in5.0 miEast (90°)9.2 mph
1:00 PM91.0 °F67.0 °F35 %29.92 in5.0 miWSW (240°)2.3 mphHaze
1:00 PM91.4 °F68.0 °F46 %29.92 in5.0 miWSW (240°)2.3 mph
1:30 PM91.4 °F66.2 °F43 %29.89 in5.0 miNNW (330°)5.8 mph
2:00 PM91.4 °F68.0 °F46 %29.89 in5.0 miEast (90°)3.5 mph
2:30 PM91.4 °F68.0 °F46 %29.86 in5.0 miESE (120°)3.5 mph
3:00 PM93.2 °F68.0 °F44 %29.86 in5.0 miNorth (360°)9.2 mph
3:30 PM93.2 °F66.2 °F41 %29.86 in5.0 miNNE (30°)4.6 mph
4:00 PM93.2 °F66.2 °F41 %29.86 in5.0 miCalm
6:00 PM89.6 °F68.0 °F49 %29.86 in5.6 miENE (60°)5.8 mphMostly Cloudy
6:30 PM89.6 °F66.2 °F46 %29.86 in5.6 miSSE (150°)2.3 mphMostly Cloudy
7:00 PM89.6 °F64.4 °F43 %29.86 in5.6 miSouth (180°)2.3 mphMostly Cloudy
7:30 PM89.6 °F66.2 °F46 %29.89 in5.6 miESE (120°)2.3 mphMostly Cloudy
8:00 PM89.6 °F66.2 °F46 %29.89 in5.6 miNNW (330°)4.6 mphMostly Cloudy
8:30 PM89.6 °F64.4 °F43 %29.89 in5.6 miNNW (330°)5.8 mphMostly Cloudy
9:00 PM87.8 °F68.0 °F52 %29.89 in5.6 miNW (320°)4.6 mphMostly Cloudy
9:30 PM86.0 °F71.6 °F62 %29.92 in5.6 miNorth (350°)4.6 mphScattered Clouds
10:00 PM86.0 °F71.6 °F62 %29.92 in5.6 miNNW (340°)4.6 mphScattered Clouds
10:30 PM84.2 °F73.4 °F70 %29.92 in5.0 miNNW (340°)4.6 mphScattered Clouds
11:00 PM84.2 °F73.4 °F70 %29.92 in5.0 miNNW (340°)5.8 mphScattered Clouds
11:30 PM84.2 °F71.6 °F66 %29.92 in5.0 miNNW (340°)5.8 mphScattered Clouds
Hourly data recorded from VTBD, located miles away from Bangkok, Thailand







STORIES FROM OUR PARTNERS